GFSNW_con_3kmhel_162.txt.gz
Helicity
137 151 130 83 114 183 249 240 236 114 223 256 326 286 348 265 184 149 193 192 178 167 180 166 153 213 248 178 155 224 210 155 112 82 74 56 71 72 93 168 187 176 153 73
110 128 126 107 139 286 381 304 199 158 223 264 296 273 196 158 201 235 232 202 167 174 159 174 177 177 170 218 160 181 185 221 171 134 123 134 151 199 190 140 156 174 201 172
87 96 111 109 73 187 389 397 321 272 196 207 212 215 169 161 137 67 157 232 163 181 156 138 152 193 208 199 97 98 132 130 143 133 122 101 44 52 95 110 123 103 154 99
73 81 82 100 77 233 386 450 333 338 236 210 199 201 181 121 145 102 112 205 180 171 154 183 175 127 76 40 57 63 73 91 121 102 93 75 52 8 -60 -19 66 108 50 70
52 77 97 91 106 82 580 448 337 384 281 197 136 141 174 128 97 109 161 172 190 153 171 142 78 67 87 78 123 146 158 99 104 115 70 55 52 63 71 32 39 73 71 43
47 63 85 99 88 85 367 522 462 489 294 191 171 163 132 63 54 64 81 79 103 93 126 117 121 116 138 110 99 102 139 126 129 96 43 41 36 100 98 107 104 118 111 134
59 67 79 82 85 70 124 431 533 313 246 144 141 102 87 52 16 94 124 87 120 136 159 160 160 124 83 78 76 104 113 119 105 89 60 53 80 39 53 68 54 91 95 130
68 61 71 84 87 85 153 226 397 359 388 148 74 55 39 37 27 57 98 79 139 138 170 142 93 82 56 34 121 156 206 159 137 104 114 72 8 -1 44 47 53 77 80 95
68 63 54 72 102 72 96 253 242 371 306 108 95 56 30 77 96 72 126 107 71 164 180 109 50 63 54 43 63 23 96 122 164 132 99 77 19 35 32 59 43 60 56 44
57 52 52 55 73 82 61 216 290 259 231 127 96 62 68 65 85 87 146 122 109 155 151 116 68 50 73 58 45 57 63 99 135 113 129 66 124 35 69 83 27 29 37 71
47 50 51 48 51 86 71 83 172 291 195 123 103 99 93 94 122 130 134 138 153 179 140 102 70 65 58 59 46 60 45 67 110 117 115 144 71 62 102 32 31 33 55 83
36 46 47 43 50 74 52 49 225 163 203 119 122 136 149 98 111 158 199 131 93 111 121 109 87 64 86 60 34 22 26 42 60 144 73 105 110 82 80 42 23 31 90 114
26 37 41 35 42 73 68 101 177 224 141 142 128 105 91 98 65 81 95 126 119 88 104 112 93 56 43 43 14 32 27 6 -8 -16 33 32 44 62 62 88 26 88 141 175
34 38 36 37 32 77 67 279 242 233 191 158 75 74 66 60 66 63 98 99 121 82 52 88 95 53 43 16 19 -7 12 12 32 -2 9 13 -9 102 66 32 66 148 150 138
26 31 34 44 51 45 106 313 239 167 183 72 88 102 60 56 44 56 94 90 117 119 100 63 53 42 21 4 -2 16 60 18 39 4 -4 35 24 -38 -10 18 84 98 136 142
25 27 38 46 63 49 156 237 224 180 122 142 125 99 72 75 92 76 96 123 131 119 87 75 53 92 55 -28 -11 10 39 51 38 -10 -32 -17 68 -38 34 61 90 118 132 155
21 45 54 38 86 194 277 144 64 166 135 109 84 46 53 51 68 90 137 152 103 100 73 66 80 75 60 27 9 57 41 14 17 9 26 64 51 56 88 153 145 145 135 154
24 11 89 152 390 531 282 113 84 205 113 76 87 72 99 110 105 121 146 130 120 71 55 54 50 68 97 -2 42 46 121 60 36 32 65 51 75 142 157 198 204 194 171 160
43 215 161 337 312 301 198 63 148 144 119 73 60 56 51 72 96 105 125 103 73 89 65 75 74 89 98 122 62 49 8 62 31 49 75 93 140 145 153 173 196 215 180 161
259 377 260 246 271 105 177 169 122 108 82 96 -7 27 30 71 36 42 75 85 68 29 21 100 84 87 99 118 132 76 73 11 -3 -2 122 148 171 146 125 133 162 165 139 156
293 321 284 164 158 204 142 114 108 93 33 -2 -5 43 76 59 51 24 33 25 34 33 45 67 27 15 10 18 36 63 74 49 73 81 115 116 59 107 155 133 116 142 142 130
156 204 232 185 168 122 109 127 109 57 33 29 23 41 90 97 61 24 30 25 26 2 143 47 28 25 28 21 58 96 117 158 181 116 59 77 114 162 175 159 143 130 123 129
199 206 176 137 118 108 68 28 44 37 26 21 49 65 68 72 69 34 33 44 17 21 16 31 12 50 80 86 124 156 149 170 188 80 161 218 234 206 177 159 136 134 138 126
139 149 134 119 82 29 6 30 37 32 32 61 100 51 38 71 71 46 30 38 32 36 38 22 55 93 93 98 107 119 111 120 143 155 177 192 190 178 147 118 97 121 111 97
79 69 60 42 48 37 37 26 20 12 18 50 62 18 73 82 60 46 55 56 34 15 32 51 69 87 100 111 109 119 118 120 116 100 131 138 133 133 124 90 86 103 105 102
52 50 52 54 50 29 24 29 12 4 8 0 19 46 89 80 83 49 43 68 50 44 64 55 45 71 104 111 97 89 87 95 98 89 81 87 86 84 86 84 76 71 73 77
34 43 29 4 21 23 -2 -5 4 14 -26 8 34 31 62 61 66 54 59 42 61 57 60 58 58 55 73 87 99 86 86 81 68 67 69 65 63 79 84 87 55 62 59 67

GFSNW_con_3kmhel_168.txt.gz
Helicity
139 143 156 165 187 153 212 259 277 265 207 302 348 294 280 205 170 158 141 146 144 169 182 169 161 167 174 186 155 175 185 161 136 90 144 148 105 81 109 174 167 204 227 203
117 127 134 145 151 129 158 239 250 158 372 385 375 336 249 175 182 171 167 191 138 151 149 167 151 168 169 187 156 171 146 180 171 183 177 153 146 150 149 169 193 204 246 260
94 108 110 139 144 123 126 143 292 227 285 358 297 309 195 181 98 90 103 135 180 162 165 164 191 175 140 171 166 156 166 183 175 150 111 126 170 177 190 199 236 196 254 141
69 78 92 111 150 123 108 132 148 204 240 313 341 306 216 182 166 102 105 131 103 150 181 175 182 160 166 150 158 142 114 125 93 105 94 121 146 138 156 177 166 216 129 178
59 48 65 88 117 134 137 162 126 233 218 145 175 227 187 163 183 126 101 61 75 113 144 169 142 135 129 109 129 90 78 83 91 112 88 88 101 131 135 129 128 157 118 79
55 55 55 66 94 110 173 79 108 60 143 151 179 244 179 129 131 82 93 82 92 101 100 103 137 127 113 99 76 50 78 79 95 110 45 69 89 113 113 141 149 127 112 113
56 58 55 55 65 74 145 106 80 79 16 108 151 139 130 136 136 98 97 64 86 87 96 77 140 171 146 132 113 115 116 127 139 108 64 114 85 94 52 75 90 117 99 96
49 61 71 69 63 56 119 92 81 74 46 33 60 84 133 78 50 72 40 55 59 39 83 161 142 184 171 121 90 82 115 149 154 133 104 58 22 22 62 66 57 57 88 76
45 47 41 70 80 66 101 104 103 69 3 -18 33 36 82 172 164 73 68 48 81 176 104 195 191 215 137 102 96 102 70 88 127 134 106 37 81 42 56 18 71 26 40 24
37 38 39 35 58 73 97 104 76 104 58 -39 48 52 91 164 188 84 48 69 155 191 96 43 144 214 69 118 89 61 92 39 53 94 114 117 68 32 51 70 45 40 20 30
26 33 37 38 45 53 104 103 92 112 106 67 95 39 56 138 119 69 59 141 151 151 110 81 61 33 57 84 86 108 98 59 81 94 88 55 68 70 62 60 34 33 15 20
17 23 28 33 42 43 61 124 90 84 104 81 69 8 -15 31 34 52 89 83 62 69 89 81 67 97 84 71 105 43 74 109 90 85 61 33 21 16 28 17 -12 25 52 42
13 17 19 19 31 38 65 114 83 113 77 -14 -29 -74 -17 -3 1 58 65 104 101 114 107 94 112 86 74 65 38 75 65 77 87 52 11 -13 46 2 -17 3 24 11 30 28
0 7 40 19 24 35 52 92 82 97 62 -13 -36 49 72 16 18 43 97 110 144 112 114 111 113 92 78 50 64 47 51 43 31 57 33 29 -3 -45 -6 64 69 37 42 33
-4 28 18 11 27 36 68 71 63 80 26 22 2 51 116 101 44 94 113 121 117 108 102 92 80 107 110 77 27 7 128 94 94 41 57 22 27 -7 26 17 40 44 24 61
-8 15 12 10 23 33 92 63 29 52 81 4 -58 7 36 64 71 103 129 120 116 119 102 95 85 143 119 35 22 9 70 102 84 13 41 25 30 -1 -33 -27 22 25 41 67
11 22 18 29 29 64 99 72 87 59 102 32 -39 -37 72 85 147 154 146 139 136 132 101 104 139 129 111 76 -1 47 73 63 57 57 46 1 26 33 39 -30 15 25 66 82
18 28 36 30 26 22 -29 -250 90 100 140 39 30 42 73 157 128 128 125 150 154 138 125 155 145 129 139 0 24 17 16 60 56 24 35 3 34 25 12 40 48 66 91 111
19 19 25 65 47 18 -100 -40 31 227 135 82 88 46 47 84 100 110 112 123 138 127 180 182 130 148 104 69 37 25 90 107 67 25 40 59 38 37 41 48 75 110 111 114
-7 66 63 9 -1 5 131 84 63 114 57 124 103 99 98 105 111 130 128 108 98 123 102 134 130 144 141 83 83 105 92 75 70 -5 -19 -20 1 19 41 87 96 112 115 126
24 -40 19 41 67 129 50 63 76 69 57 36 82 88 108 85 115 127 82 89 51 45 60 114 73 127 158 54 43 34 41 38 50 65 -5 -7 43 81 128 185 264 251 188 114
-54 -31 139 173 50 52 37 77 58 36 56 46 50 86 144 128 93 95 74 72 57 -3 83 52 9 -9 14 35 43 36 31 29 26 29 36 42 65 55 83 89 25 26 73 98
84 244 187 91 66 54 16 39 59 59 33 51 75 72 56 80 87 114 112 78 19 59 11 23 -6 -10 36 54 43 50 51 50 51 59 87 87 83 82 83 60 59 84 94 94
155 111 48 67 71 30 32 43 73 69 85 58 44 55 54 76 103 123 115 67 75 43 29 50 3 -11 7 35 45 46 43 43 54 77 88 91 81 112 120 119 109 108 92 81
92 75 46 46 50 44 44 65 78 92 67 59 41 54 77 70 60 74 75 52 31 28 19 6 -5 1 16 58 63 56 49 49 63 66 80 88 94 131 144 142 123 117 103 100
32 63 53 58 71 79 81 63 44 37 45 49 57 35 47 90 128 139 94 60 50 28 5 11 23 32 57 60 73 67 61 57 71 77 74 75 75 88 98 117 108 88 79 79
56 61 63 58 54 49 51 47 36 39 47 56 58 33 11 76 100 131 120 81 51 37 48 41 42 49 53 67 65 53 55 73 75 64 68 62 58 67 78 99 85 90 91 85

GFSNW_con_3kmhel_171.txt.gz
Helicity
159 156 171 178 192 193 165 234 335 220 217 303 322 310 316 226 210 186 152 155 154 150 142 150 159 136 137 145 138 143 149 155 151 118 143 130 124 108 99 151 142 172 196 156
126 133 130 143 173 149 189 285 285 201 204 305 318 330 267 188 179 168 150 146 110 125 143 135 120 132 129 129 106 128 133 171 163 159 140 115 117 130 138 154 150 144 195 212
95 108 125 121 145 174 168 259 315 264 233 281 293 281 216 246 141 94 122 110 131 137 132 118 134 134 129 125 125 115 138 181 178 158 159 148 147 138 130 151 190 139 172 71
89 73 86 109 115 156 162 180 283 262 247 290 289 197 210 156 165 108 86 97 78 95 118 101 127 123 131 130 142 146 154 170 134 113 81 91 79 84 108 138 155 201 118 122
61 81 56 65 86 116 172 230 236 221 165 134 146 190 162 157 170 150 95 79 72 88 97 89 88 126 149 129 129 130 134 143 117 136 74 53 91 127 151 134 121 133 104 58
47 59 68 71 56 84 160 166 106 163 143 136 99 164 147 93 80 104 107 79 89 97 91 59 73 81 90 133 157 146 140 122 98 113 54 80 113 136 96 93 74 73 78 85
41 52 66 67 66 65 117 115 152 137 124 97 72 -30 26 44 55 189 93 120 123 102 110 70 63 90 91 134 111 119 123 144 148 106 98 120 143 77 31 22 25 52 82 103
38 48 57 64 69 47 119 122 120 121 95 50 37 35 56 50 52 46 73 187 120 56 84 58 59 90 141 141 129 124 163 205 116 134 112 75 60 39 42 59 25 21 34 57
50 50 48 44 38 62 97 107 74 106 112 27 35 17 41 -26 27 101 104 95 95 62 98 100 94 78 80 99 129 188 159 104 69 128 121 47 68 86 52 36 6 93 62 48
26 32 37 38 40 32 88 98 63 105 106 36 97 77 41 20 82 68 88 51 54 95 117 84 83 41 41 151 191 155 158 90 69 97 117 123 40 60 40 48 61 62 86 76
21 25 30 31 28 33 78 92 63 111 110 42 69 92 96 70 -9 44 103 92 116 104 89 113 118 95 88 24 20 63 71 97 132 127 166 86 66 88 41 50 25 8 32 41
15 19 22 26 21 24 43 110 97 72 117 83 77 45 -6 -53 -16 -22 32 79 88 60 83 80 99 71 16 47 40 65 102 132 127 126 90 110 84 67 -0 15 -23 -22 -34 22
14 5 13 20 8 6 33 108 94 121 106 -34 -34 -32 2 -9 24 102 53 69 46 61 69 83 93 92 98 98 69 59 67 87 98 81 60 26 19 11 -9 -30 6 70 70 53
18 1 -3 21 21 2 20 105 96 121 122 23 -31 2 24 52 -5 -58 -21 66 31 68 116 130 91 127 108 112 100 78 69 58 73 85 3 23 21 9 -50 -81 -59 12 97 55
10 3 9 22 26 5 52 85 84 96 122 55 12 59 82 25 98 38 22 -0 11 115 133 114 97 110 138 145 138 120 130 127 114 72 66 53 30 4 13 6 9 -41 8 161
-15 -5 1 37 1 8 92 42 34 71 73 17 -59 8 29 47 72 40 38 20 84 101 89 101 118 157 130 122 114 53 57 86 66 -9 25 3 -4 13 19 -7 7 12 -27 114
-2 -3 -16 -12 -1 49 71 24 40 50 122 28 -37 -84 -46 -38 -9 94 93 90 82 96 106 117 130 137 144 168 90 66 42 49 54 -2 28 -13 -9 12 15 24 1 -19 12 32
5 -8 10 18 3 2 4 -16 27 92 111 46 15 -21 -55 -32 11 51 73 84 92 93 125 150 140 148 155 145 245 76 44 24 20 7 -16 14 49 53 44 50 28 29 57 81
3 15 17 -3 -9 -16 -24 -38 -92 -180 44 18 -2 7 -12 5 76 67 68 83 92 123 137 166 168 165 223 331 189 153 103 72 46 57 -12 -36 -17 22 54 70 53 48 75 108
-26 29 23 -6 -5 -20 17 24 -20 8 25 6 -5 61 53 31 51 50 55 83 84 114 101 112 114 176 301 237 204 169 107 60 45 -1 10 -14 -27 -16 -6 2 40 56 88 118
35 20 26 20 2 50 -2 16 5 32 33 27 42 36 65 63 62 70 84 100 103 100 60 60 33 62 26 33 18 60 64 38 32 23 36 -1 -13 18 47 54 75 124 165 154
-7 -1 3 27 8 15 11 16 32 47 26 25 31 63 103 97 87 110 106 97 81 73 100 2 28 -11 -2 15 44 59 52 31 22 15 2 2 4 49 89 77 93 151 208 262
-13 15 24 34 29 33 12 20 30 15 -13 18 42 84 111 107 113 124 69 76 85 124 32 57 39 -13 -34 -8 47 48 38 43 36 34 46 63 82 103 76 54 61 56 51 42
64 53 49 30 11 27 17 -1 29 42 28 43 56 67 46 47 67 73 89 104 118 42 62 50 12 -0 -2 6 21 27 31 39 44 52 49 72 82 82 75 67 76 94 90 85
79 63 28 8 31 8 11 7 23 67 70 62 61 54 52 72 69 81 76 61 26 11 50 35 3 7 4 32 44 34 39 40 39 42 61 78 81 83 123 130 97 101 99 98
4 19 10 2 -10 5 -0 17 35 52 58 50 59 56 42 53 85 72 97 126 130 24 7 18 20 16 26 38 56 70 62 62 68 74 68 66 78 91 113 126 129 105 91 95
25 17 20 37 36 34 53 47 29 43 49 54 55 47 47 67 45 82 130 155 95 46 43 34 31 16 24 39 62 71 62 57 72 76 67 62 59 61 83 111 93 106 108 103

GFSNW_con_3kmhel_174.txt.gz
Helicity
171 178 177 184 211 204 130 259 314 236 181 282 392 338 311 300 174 190 143 179 178 163 134 146 140 147 140 154 155 146 97 143 146 105 90 119 94 83 53 112 118 100 125 114
125 133 143 145 163 181 211 283 313 231 258 348 275 196 232 142 155 164 176 170 127 133 149 201 115 86 64 72 78 134 83 135 134 91 83 94 120 84 87 112 140 159 173 164
92 91 109 133 125 162 195 283 355 292 290 325 272 226 192 162 118 96 96 123 133 120 112 105 147 128 112 121 79 102 116 110 130 152 100 152 145 92 120 146 154 120 123 84
91 95 75 80 100 121 168 233 325 230 308 218 251 162 208 130 162 103 60 155 88 78 143 90 93 71 59 64 88 99 128 135 95 114 125 142 124 130 129 119 108 119 96 72
63 61 80 51 59 83 144 260 230 202 245 176 164 120 173 80 45 114 143 92 61 116 95 65 72 98 99 92 94 94 121 130 150 202 145 121 141 103 102 99 83 105 73 48
45 46 59 69 56 55 116 132 129 179 195 142 100 97 73 86 42 90 72 49 81 60 40 56 76 86 67 64 85 105 138 165 143 91 74 109 113 113 73 40 48 60 75 24
26 24 34 52 58 72 86 98 102 149 107 94 114 95 69 73 26 38 32 14 28 67 142 130 73 57 51 49 56 63 61 117 199 140 76 84 65 110 71 29 30 38 28 24
34 36 35 44 52 63 79 72 110 139 114 104 81 76 71 60 55 -7 32 17 39 146 173 106 50 62 65 56 49 38 53 66 92 102 69 44 60 59 33 -5 40 21 66 50
34 35 38 54 58 48 83 74 59 107 121 74 44 70 91 63 54 86 45 5 35 136 103 87 124 98 94 81 85 43 51 76 159 168 135 109 99 135 80 49 46 92 40 66
31 26 25 24 37 39 72 75 45 88 120 47 69 77 98 105 70 21 -6 -13 53 96 147 125 106 66 116 85 119 96 87 159 99 82 91 92 81 84 90 64 61 108 88 85
30 25 29 24 19 21 59 77 44 74 114 65 68 81 61 50 57 48 89 29 55 188 118 139 116 97 72 82 80 99 73 92 90 67 64 63 80 126 77 106 95 72 68 55
43 36 32 24 18 12 28 71 68 57 74 118 131 71 44 10 11 2 -14 -1 -46 17 77 58 69 59 76 51 82 41 9 56 69 134 112 150 84 80 54 23 -13 59 37 -9
45 35 24 18 14 11 28 61 54 69 68 -22 -22 -30 7 9 1 -2 -44 2 -57 51 55 53 44 38 41 36 34 53 55 38 84 59 63 28 44 58 -21 -41 -34 16 6 46
37 21 17 12 9 17 19 69 48 48 62 0 -2 37 18 24 5 -25 -11 8 -16 -20 3 24 30 30 41 9 29 65 56 75 48 39 32 18 19 67 36 10 -33 -44 -38 -9
2 8 7 -5 3 15 31 50 47 40 50 39 23 51 94 41 16 -17 -28 -4 -18 14 11 36 42 45 58 51 66 78 90 67 52 29 -9 19 31 9 11 3 -14 -25 -19 -6
-14 -15 -6 1 20 52 68 82 33 36 41 19 -37 9 6 63 52 2 -34 -62 47 117 -60 43 63 73 56 64 76 85 128 85 41 -26 0 5 10 28 21 4 6 -13 -31 -39
-24 -7 -4 -3 14 93 94 44 31 4 75 43 18 -37 -39 -41 -58 22 121 81 59 43 67 62 37 48 104 97 94 167 129 94 37 -10 21 6 -5 6 38 28 21 21 0 -15
-22 3 -1 1 -2 4 -13 -9 85 37 65 25 6 -1 -19 -65 21 45 38 62 63 39 46 60 57 131 127 171 170 33 14 -4 -2 27 0 -16 22 34 38 32 29 31 17 2
0 8 1 15 -9 0 -2 -32 -32 24 67 10 -14 -2 6 -15 46 26 24 45 46 59 51 81 108 129 177 110 32 -1 -16 -49 -21 -18 46 46 4 -3 11 21 18 43 54 38
6 15 12 7 3 -32 -31 -10 3 -44 -49 -35 -11 24 9 9 -1 37 23 18 42 38 22 82 92 127 109 -1 -6 7 17 7 -6 -22 -5 -18 -7 -3 6 12 23 37 56 53
18 13 8 -7 -33 15 -8 19 -3 -6 -21 -34 7 -5 7 -5 19 12 9 13 25 34 68 72 90 75 31 48 13 28 45 50 29 15 15 3 -5 2 21 27 27 25 62 88
15 -8 1 25 -4 -11 11 2 6 2 15 -12 -6 15 38 22 30 22 27 37 51 54 79 60 72 57 78 -38 7 40 53 43 15 16 12 8 6 -6 4 44 80 121 165 187
11 13 10 20 32 69 41 1 8 2 -10 2 24 46 50 49 46 47 38 39 54 92 77 84 49 36 1 -14 -1 44 62 42 23 28 30 36 57 56 50 68 86 85 97 82
65 80 45 39 30 41 27 23 21 14 2 3 5 68 41 48 29 34 49 54 57 39 44 60 61 26 13 8 -10 13 1 7 17 31 39 50 63 61 69 68 58 70 52 45
60 21 18 20 33 15 10 1 -5 11 17 26 34 34 25 43 49 46 63 44 31 52 15 11 37 12 10 15 23 20 12 5 18 32 43 60 72 90 112 139 91 95 90 88
1 9 9 -19 -24 -25 -30 -27 -28 17 26 61 60 64 57 49 61 83 59 42 72 90 41 23 20 17 21 21 23 35 42 33 30 54 63 66 74 79 86 106 130 114 95 99
-10 -17 -16 1 -3 -11 13 13 18 28 44 42 50 56 54 76 50 69 67 66 87 80 30 27 25 16 14 16 22 36 53 45 43 56 67 67 63 62 77 106 105 104 104 108